Location: Molino di Ancona
(43.6167°N, 13.3667°E)
Time: 04:23:11
(UTC+00:00)

X-37B - Visible Passes

Search period start: 26 February 2021 00:00
Search period end: 08 March 2021 00:00
Orbit: 383 x 391 km, 45.0° (Epoch: 10 February)

Date Brightness Start Highest point End Pass type
(mag) Time Alt. Az. Time Alt. Az. Time Alt. Az.
26 Feb 0.5 04:07:49 69° NNW 04:08:00 71° N 04:11:09 10° E visible
27 Feb 3.8 03:12:04 15° E 03:12:04 15° E 03:12:44 10° E visible
27 Feb 0.7 04:44:21 21° W 04:46:16 64° SSW 04:49:24 10° ESE visible
28 Feb 1.4 03:48:39 50° ESE 03:48:39 50° ESE 03:51:05 10° ESE visible
01 Mar 1.2 04:25:18 33° WSW 04:26:05 40° SSW 04:29:04 10° SE visible
02 Mar 2.9 03:29:44 21° ESE 03:29:44 21° ESE 03:30:55 10° ESE visible
02 Mar 2.7 05:02:09 10° WSW 05:04:00 15° SW 05:05:50 10° S visible
03 Mar 2.3 04:06:36 22° S 04:06:36 22° S 04:08:28 10° SSE visible
